Regional Weather Roundup
Issued by NWS Burlington, VT

Home | Current Version | Previous Version | Text Only | Print | Product List | Glossary On
Versions: 1 2 3 4 5 6 7 8 9 10 11 12 13 14 15 16 17 18 19 20 21 22 23 24 25 26 27 28 29 30 31 32 33 34 35 36 37 38 39 40 41 42 43 44 45 46 47 48 49 50
000
ASUS41 KBTV 172030
RWRBTV
VERMONT REGIONAL WEATHER ROUNDUP
NATIONAL WEATHER SERVICE BURLINGTON VT
300 PM EST TUE JAN 17 2017

NOTE: "FAIR" INDICATES FEW OR NO CLOUDS BELOW 12,000 FEET WITH NO
SIGNIFICANT WEATHER AND/OR OBSTRUCTIONS TO VISIBILITY.

* THESE REPORTS ARE NOT UNDER NWS QUALITY CONTROL AND/OR DO NOT
  REPORT WEATHER SUCH AS PRECIPITATION AND FOG.

VTZ001>019-172100-
_____VERMONT_____


CITY           SKY/WX    TMP DP  RH WIND       PRES   REMARKS
BURLINGTON     CLOUDY    36  23  59 CALM      30.12F
MONTPELIER     FAIR      34  22  61 E3        30.14F
MORRISVILLE    FAIR      36  21  54 CALM      30.13F
ST. JOHNSBURY*   N/A     36  22  56 MISG      30.13F
LYNDONVILLE*   FAIR      32  22  67 CALM      30.13F
MIDDLEBURY*    FAIR      36   9  32 CALM      30.11S
RUTLAND*       PTSUNNY   37  22  54 S7        30.10F WCI  32
SPRINGFIELD    FAIR      37  20  50 CALM      30.14F
HIGHGATE*      FAIR      36  24  64 NE3       30.12F
NEWPORT*       FAIR      31  23  73 CALM      30.13F
BENNINGTON     LGT RAIN  39  21  48 CALM      30.08F
SUTTON*          N/A     30 N/A N/A MISG        N/A
ISLAND POND*     N/A     32 N/A N/A E3          N/A
GALLUP MILLS*    N/A     32 N/A N/A MISG        N/A
UNION VILLAGE*   N/A     34 N/A N/A MISG        N/A
MT. MANSFIELD*   N/A     23 N/A N/A SE16        N/A  WCI  10

_____LAKE CHAMPLAIN_____


CITY           SKY/WX    TMP DP  RH WIND       PRES   REMARKS
BURTON ISLAND*   N/A     32  28  86 NW1         N/A
COLCHESTER RF*   N/A     34  28  80 N7          N/A  WCI  28
DIAMOND ISL*     N/A     36  27  69 N7          N/A  WCI  30

$$

NYZ007-026>031-035-052-083-087-172100-
_____NORTHERN NEW YORK_____


CITY           SKY/WX    TMP DP  RH WIND       PRES   REMARKS
PLATTSBURGH    FAIR      34  23  64 NE3       30.12F
SARANAC LAKE   PTSUNNY   32  20  61 NE8       30.00S WCI  25
MASSENA        FAIR      33  26  75 NE15      30.08F WCI  23
OGDENSBURG*    SUNNY     36  28  75 E7        30.02F WCI  30
POTSDAM*       PTSUNNY   36  28  75 E7        30.02F WCI  30
STARK FALLS*     N/A     37 N/A N/A E6          N/A
WATERTOWN      RAIN      34  28  79 E12       29.97F WCI  25
FT DRUM        LGT RAIN  32  25  74 SE12      29.96F WCI  23
ALBANY         LGT RAIN  33  26  75 CALM      30.12F
GLENS FALLS    CLOUDY    37  19  48 CALM      30.11F

$$
NHZ002-005-011-172100-
_____NEW HAMPSHIRE_____


CITY           SKY/WX    TMP DP  RH WIND       PRES   REMARKS
LEBANON        FAIR      38  22  52 CALM      30.13F
KEENE          CLOUDY    41  18  39 VRB5      30.15S
MT WASHINGTON  PTSUNNY   28  -6  22 SW7         N/A  WCI  21
PLYMOUTH       FAIR      38  19  46 E6        30.16R
WHITEFIELD     FAIR      36  21  54 NW5       30.12S

$$

_____REGIONAL QUEBEC LOCATIONS_____


CITY           SKY/WX    TMP DP  RH WIND       PRES   REMARKS
MONTREAL       CLOUDY    28  19  69 NE16      30.14F WCI  17
QUEBEC CITY    PTSUNNY   21   9  58 NE15G21   30.27F WCI   8
SHERBROOKE     SUNNY     34  18  51 CALM      30.14F

_____REGIONAL ONTARIO LOCATIONS_____


CITY           SKY/WX    TMP DP  RH WIND       PRES   REMARKS
OTTAWA         CLOUDY    30  21  69 E9G18     30.06F WCI  22

______KEY______
VSB  - VISIBILITY IN MILES
WCI  - WIND CHILL INDEX
HX   - HEAT INDEX
$$
NNNN



USA.gov is the U.S. government's official web portal to all federal, state and local government web resources and services.